Regional Weather Roundup
Issued by NWS

Home | Current Version | Previous Version | Text Only | Print | Product List | Glossary On
Versions: 1 2 3 4 5 6 7 8 9 10 11 12 13 14 15 16 17 18 19 20 21 22 23 24 25 26 27 28 29 30 31 32 33 34 35 36 37 38 39 40 41 42 43 44 45 46 47 48 49 50
000
ASHW40 PHFO 280712
RWRHI

WEATHER ROUNDUP FOR HAWAII
NATIONAL WEATHER SERVICE HONOLULU HI
900 PM HST WED JUL 27 2016

THIS IS AN AUTOMATED REPORT THAT HAS NOT BEEN QUALITY CONTROLLED.

NOTE..."FAIR" INDICATES FEW OR NO CLOUDS BELOW 12,000 FEET WITH NO
SIGNIFICANT WEATHER AND/OR OBSTRUCTIONS TO VISIBILITY.

* - THESE SITES REPORT LIMITED FIELDS

HIZ001>004-280800-
KAUAI-NIIHAU-

CITY           SKY/WX    TMP DP  RH WIND       PRES   REMARKS
LIHUE APT      PTCLDY    79  71  76 NE15      30.06R
PORT ALLEN*      N/A     81 N/A N/A NE20G28     N/A
POIPU*           N/A     79 N/A N/A NE9G22      N/A
PRINCEVILLE*     N/A     75 N/A N/A SE5         N/A
KOKOLE POINT*  NOT AVBL
MOLOAA DAIRY*    N/A     77  72  83 E3G12       N/A
WAIMEA HTS*    NOT AVBL
PUU OPAE*      NOT AVBL
PUU LUA*       NOT AVBL
MAKAHA RIDGE*  NOT AVBL
$$

HIZ005>011-280800-
OAHU-

CITY           SKY/WX    TMP DP  RH WIND       PRES   REMARKS
HONOLULU       MOCLDY    80  67  64 NE14G24   30.01R
KALAELOA       PTCLDY    81  67  62 VRB3      30.02R
KANEOHE MCB    MOCLDY    79  70  74 E16       30.02R
WHEELER FIELD  MOCLDY    76  68  75 VRB2      30.04S
BELLOWS*       NOT AVBL
KAHUKU*        NOT AVBL
WHEELER*       NOT AVBL
WAIANAE HARBOR NOT AVBL
DILLINGHAM*      N/A     79  66  65 MISG        N/A
KAHUKU TRN*      N/A     75  70  83 W10G25      N/A
KAWAILOA*        N/A     73  66  78 E7G22       N/A
KII*             N/A     81  72  74 E18G25      N/A
MAKUA RANGE*     N/A     90  77  66 NW7G13      N/A  HX 102
OAHU FOREST NW NOT AVBL
SCHOFIELD BRK*   N/A     82  73  74 MISG        N/A
SCHOFIELD S*   NOT AVBL
WAIANAE VLY*   NOT AVBL
KUAOKALA*      NOT AVBL
HONOULIUULI*   NOT AVBL
MOKUOLOE IS*   NOT AVBL
PALEHUA*       NOT AVBL
WAIAWA PHB*    NOT AVBL
$$

HIZ012>013-280800-
MOLOKAI-

CITY           SKY/WX    TMP DP  RH WIND       PRES   REMARKS
MOLOKAI AIRPT  PTCLDY    79  70  74 NE16G26   30.03R
KALAUPAPA      NOT AVBL
MAKAPULAPAI*   NOT AVBL
MOLOKAI 1*     NOT AVBL
PUU ALII*      NOT AVBL
$$

HIZ016-280800-
KAHOOLAWE-

CITY           SKY/WX    TMP DP  RH WIND       PRES   REMARKS
KAHOOLAWE*     NOT AVBL
HAKIOAWA*      NOT AVBL
HONOKANAIA*      N/A     79  67  66 NE14G31   29.93R
KANELOA*         N/A     75  70  83 E21G37    30.06R
KEALIALALO*    NOT AVBL
LUA MAKIKA*    NOT AVBL
$$

HIZ014>015-280800-
LANAI-

CITY           SKY/WX    TMP DP  RH WIND       PRES   REMARKS
LANAI CITY     CLOUDY    73  67  81 NE15      30.06R
LANAI 1*       NOT AVBL
$$

HIZ017>028-280800-
MAUI-

CITY           SKY/WX    TMP DP  RH WIND       PRES   REMARKS
KAHULUI        PTCLDY    79  69  71 NE18G30   30.01R
KAPALUA-W MAUI NOT AVBL
HANA AIRPORT     N/A     77  72  83 E3        30.08S
HANA*            N/A     79 N/A N/A NE12        N/A
HALEAKALA SUMM   N/A     48  28  46 E23G51      N/A
MAALAEA BAY*   NOT AVBL
HALEAKALA*     NOT AVBL
KAUPO GAP*     NOT AVBL
KULA 1*          N/A     64  34  32 N6G14       N/A
$$

HIZ023>026-280800-
BIG ISLAND OF HAWAII COAST AND LOWER SLOPES-

CITY           SKY/WX    TMP DP  RH WIND       PRES   REMARKS
KAILUA KONA    PTCLDY    81  68  64 NE14G24   29.96R
HILO           LGT RAIN  75  72  88 S5        30.06R FOG
HONOKAA*         N/A     72 N/A N/A VRB1        N/A
KAWAIHAE MWT*    N/A     82 N/A N/A W7          N/A
KAWAIHAE*      NOT AVBL
SOUTH POINT*     N/A     75 N/A N/A N23G35      N/A
UPOLU AIRPORT*   N/A    N/A N/A N/A NE21G30     N/A
KAMUELA*       NOT AVBL
HAKALAU*       NOT AVBL
KALOKO-HONOKO* NOT AVBL
PALI 2*          N/A     66  61  82 S21G35      N/A
KEALAKOMO*       N/A     79  68  69 NE16G28     N/A
KAUPULEHU*     NOT AVBL
KAPAPALA*        N/A     67  64  90 NE1G8       N/A
LOWER KAHUKU*  NOT AVBL
PUHE CS*       NOT AVBL
PUHO CS*       NOT AVBL
PTA KEAMUKU*     N/A     63  59  88 CALM        N/A
WAIKOLOA*      NOT AVBL
$$

HIZ027>028-280800-
BIG ISLAND OF HAWAII INTERIOR AND SUMMMITS-

CITY           SKY/WX    TMP DP  RH WIND       PRES   REMARKS
BRADSHAW FIELD PTCLDY    57  49  73 SE10G23   30.34R
MK VISITOR CEN   N/A     52  30  43 NE14        N/A
MAUNA KEA*       N/A     30  25  80 SE29        N/A  WCI  15
MAUNA LOA*       N/A    N/A N/A N/A MISG        N/A
MAUNA LOA 1*   NOT AVBL
PTA KIPUKA*      N/A    N/A N/A N/A E17G25      N/A
PTA RANGE 17*    N/A    N/A N/A N/A SE14G22     N/A
PTA WEST*        N/A     59  57  94 SE3         N/A
NENE CABIN*    NOT AVBL
AHUMOA*        NOT AVBL
PTA PORTABLE*  NOT AVBL
PUU MALI*        N/A    N/A N/A N/A SE14G28     N/A
$$

HIC003-280800-
NORTHWEST ISLANDS-

CITY           SKY/WX    TMP DP  RH WIND       PRES   REMARKS
MIDWAY ISLAND  MOCLDY    79  70  73 E14       30.09R
MIDWAY NOS*    NOT AVBL
FRENCH FRIGATE NOT AVBL
$$

PHZ110>124-180-280800-
BUOY REPORTS

STATION/POSITION TIME  TEMP    WIND        PRES    WAVE   SWELL
                       AIR SEA DIR/SP/G            HT/PER HT/DIR
                 (UTC) (F)     (DEG/KT/KT) (MB)    (FT/S) (FT/D)
BUOY 51001       0600   81 82  110/ 10/ 12 1014.0R
BUOY 51101       0650   79 80   80/ 16/ 17 1017.9R   5/ 6   3/120
BUOY 51100       NOT AVBL
BUOY 51002       0650   82 82   80/ 14/ 16 1013.5R   6/ 8   5
BUOY 51003       0650   81 82   60/ 14/ 17 1014.6R   6/ 8   5/110
BUOY 51004       0650   80 81   60/ 19/ 23 1014.7R   7/ 8   5/ 90
BARBERS PT BUOY  NOT AVBL
WAIMEA BAY BUOY  0604      80                N/A     4/ 7
KAILUA BAY BUOY  0641      80                N/A     6/ 7   2/110
LANAI BUOY       0615      82                N/A     3/17   2/200
BARBERS PT 2     NOT AVBL
PAUWELA MAUI     0639      80                N/A     6/ 7
HILO             0642      80                N/A     6/ 7   2/100
KANEOHE BAY BUOY 0606      79                N/A     5/ 7
HANALEI KAUAI    NOT AVBL
KAHULUI HARBOR   0600   79 81   30/ 17/ 21 1016.2R
HONOLULU HARBOR  0600   81 80   60/  8/ 14 1016.5R
KILO NALU        NOT AVBL
HILO HARBOR      0600   77 79  260/  6/  8 1016.7R
MOKUOLOE         0600   80 84   60/ 12/ 15 1017.0R
NAWILIWILI       0600      81                N/A
WHOTS BUOY       NOT AVBL
BUOY 51028       NOT AVBL
$$

......................KEY........................................
  SKY/WX - SKY CONDITIONS/PRESENT WEATHER
  TMP    - TEMPERATURE IN FAHRENHEIT
  DWPT   - DEWPOINT IN FAHRENHEIT
  RH     - RELATIVE HUMIDITY IN PERCENT
  WIND   - DIRECTION AND SPEED /MPH FOR ISLANDS...KTS FOR BUOYS/
  PRES   - MEAN SEA LEVEL PRESSURE IN INCHES OF HG
  VSB    - VISIBILITY IN MILES
  HX     - HEAT INDEX
  WCI    - WIND CHILL INDEX
  VRB    - VARIABLE WIND DIRECTION
  N/A    - NOT AVAILABLE



USA.gov is the U.S. government's official web portal to all federal, state and local government web resources and services.